This is the latest recevied weather packets stored in our database for station/object SV9TNF-52. If no packets are shown the sender has not sent any weather packets the latest 10 day(s).
| Time | Temp. | Humidity | Pressure | Rain* | Wind** | Luminosity | Snow |
|---|---|---|---|---|---|---|---|
| 1787860301 | 25.56° C | 71% | 1020.7 hPa | 0 mm | 2.68 m/s, 243° | - | - |
| 1787860002 | 25.56° C | 71% | 1020.7 hPa | 0 mm | 2.24 m/s, 212° | - | - |
| 1787859701 | 25.56° C | 71% | 1020.7 hPa | 0 mm | 1.79 m/s, 319° | - | - |
| 1787859401 | 25.56° C | 71% | 1020.3 hPa | 0 mm | 2.24 m/s, 258° | - | - |
| 1787859101 | 25.56° C | 71% | 1020.3 hPa | 0 mm | 4.02 m/s, 217° | - | - |
| 1787858801 | 25.56° C | 71% | 1020.3 hPa | 0 mm | 4.92 m/s, 229° | - | - |
| 1787858501 | 25.56° C | 71% | 1020.3 hPa | 0 mm | 2.68 m/s, 217° | - | - |
| 1787858201 | 25.56° C | 71% | 1020.3 hPa | 0 mm | 4.02 m/s, 230° | - | - |
| 1787857901 | 25.56° C | 71% | 1020.3 hPa | 0 mm | 4.02 m/s, 247° | - | - |
| 1787857601 | 26.11° C | 71% | 1020.3 hPa | 0 mm | 5.81 m/s, 227° | - | - |
| 1787857300 | 26.11° C | 71% | 1020.3 hPa | 0 mm | 4.92 m/s, 221° | - | - |
| 1787857000 | 26.11° C | 71% | 1020.3 hPa | 0 mm | 2.24 m/s, 186° | - | - |
| 1787856701 | 26.11° C | 71% | 1020.3 hPa | 0 mm | 3.13 m/s, 276° | - | - |
| 1787856400 | 26.11° C | 71% | 1020.3 hPa | 0 mm | 3.58 m/s, 214° | - | - |
| 1787856100 | 26.11° C | 71% | 1020.3 hPa | 0 mm | 4.02 m/s, 205° | - | - |
| 1787855800 | 26.11° C | 71% | 1020.3 hPa | 0 mm | 2.68 m/s, 235° | - | - |
| 1787855500 | 26.67° C | 71% | 1020.3 hPa | 0 mm | 3.58 m/s, 242° | - | - |
| 1787855200 | 26.67° C | 71% | 1020.3 hPa | 0 mm | 4.02 m/s, 217° | - | - |
| 1787854900 | 26.67° C | 71% | 1020.3 hPa | 0 mm | 5.81 m/s, 194° | - | - |
| 1787854599 | 26.67° C | 70% | 1020.3 hPa | 0 mm | 3.13 m/s, 216° | - | - |
| 1787854299 | 26.67° C | 70% | 1020.3 hPa | 0 mm | 4.92 m/s, 248° | - | - |
| 1787853999 | 26.67° C | 70% | 1020.3 hPa | 0 mm | 5.81 m/s, 197° | - | - |
| 1787853699 | 27.22° C | 70% | 1020.3 hPa | 0 mm | 0.89 m/s, 237° | - | - |
| 1787853399 | 27.22° C | 70% | 1020.3 hPa | 0 mm | 0.45 m/s, 176° | - | - |
| 1787853099 | 27.22° C | 70% | 1020.3 hPa | 0 mm | 3.13 m/s, 173° | - | - |
* Rain latest hour (hover to see other rain measurements)
** Current wind speed in m/s (hover to see current wind gust speed)